FW2458 Weather Reports


Display with metric or nautical units.
time (UTC)temp
F
wind
direction
speed
MPH
gust
MPH
rain 1hr
in
rain 24hr
in
rain mn
in
humidity
%
barometer
mb
20260507210442 62 168 2.0 6.0 0.00 0.20 0.17 39 1008.0
20260507205930 62 153 2.0 6.0 0.00 0.20 0.17 39 1007.8
20260507205424 62 207 1.0 5.0 0.00 0.20 0.17 39 1007.8
20260507204918 62 20 1.0 10.0 0.00 0.20 0.17 38 1007.9
20260507204420 62 159 1.0 10.0 0.00 0.20 0.17 39 1007.8
20260507203920 62 194 1.0 10.0 0.00 0.20 0.17 39 1007.7
20260507203420 63 162 2.0 10.0 0.00 0.20 0.17 40 1007.7
20260507202917 63 202 2.0 11.0 0.00 0.20 0.17 41 1007.8
20260507202414 63 87 3.0 11.0 0.00 0.20 0.17 38 1007.8
20260507202137 63 78 2.0 10.0 0.00 0.20 0.17 43 1007.8
20260507201414 63 67 2.0 10.0 0.00 0.20 0.17 43 1007.9
20260507200918 62 46 2.0 8.0 0.00 0.20 0.17 43 1007.8
20260507200640 62 217 2.0 6.0 0.00 0.20 0.17 38 1008.0
20260507195915 63 76 2.0 10.0 0.00 0.20 0.17 42 1007.6
20260507195413 63 61 3.0 10.0 0.00 0.20 0.17 40 1007.8
20260507195145 64 38 2.0 9.0 0.00 0.20 0.17 39 1007.7
20260507194414 64 51 2.0 7.0 0.00 0.20 0.17 39 1007.8
20260507193909 64 204 3.0 7.0 0.00 0.20 0.17 36 1007.7
20260507193406 65 212 2.0 11.0 0.00 0.20 0.17 39 1007.9
20260507193351 65 205 2.0 11.0 0.00 0.20 0.17 36 1008.0
20260507192404 65 183 2.0 11.0 0.00 0.20 0.17 41 1008.1
20260507191905 65 198 2.0 11.0 0.00 0.20 0.17 40 1008.0
20260507191406 65 215 3.0 11.0 0.00 0.21 0.17 41 1008.1
20260507190905 65 166 3.0 11.0 0.00 0.21 0.17 39 1008.0
20260507190417 65 224 2.0 9.0 0.00 0.21 0.17 42 1008.4
20260507185906 65 144 2.0 9.0 0.00 0.21 0.17 46 1008.4
20260507185620 64 47 2.0 9.0 0.00 0.21 0.17 39 1008.5
20260507185116 64 198 2.0 8.0 0.00 0.21 0.17 39 1008.4
20260507184630 64 224 2.0 9.0 0.00 0.22 0.17 38 1008.5
20260507183901 64 43 2.0 9.0 0.00 0.22 0.17 39 1008.5
20260507183634 63 46 2.0 6.0 0.00 0.22 0.17 42 1008.5
20260507182900 63 210 2.0 6.0 0.00 0.22 0.17 40 1008.5
20260507182400 63 57 2.0 8.0 0.00 0.22 0.17 40 1008.6
20260507181902 63 82 2.0 8.0 0.00 0.22 0.17 42 1008.9
20260507181356 63 62 2.0 5.0 0.00 0.22 0.17 39 1008.8
20260507180856 63 69 2.0 7.0 0.00 0.22 0.17 46 1008.9
20260507180620 62 207 2.0 7.0 0.00 0.22 0.17 40 1008.9
20260507180120 62 72 3.0 9.0 0.00 0.22 0.17 43 1009.0
20260507175357 63 213 3.0 9.0 0.00 0.22 0.17 39 1008.9
20260507175120 63 227 2.0 9.0 0.00 0.22 0.17 45 1009.1
20260507174356 62 31 3.0 9.0 0.00 0.22 0.17 43 1009.1
20260507173857 62 103 2.0 8.0 0.00 0.22 0.17 41 1009.1
20260507173614 62 35 2.0 7.0 0.00 0.22 0.17 44 1009.2
20260507172844 62 199 3.0 7.0 0.00 0.22 0.17 44 1009.3
20260507172338 62 63 3.0 9.0 0.00 0.22 0.17 44 1009.4
20260507171839 62 58 2.0 9.0 0.00 0.22 0.17 41 1009.4
20260507171338 62 79 2.0 10.0 0.00 0.22 0.17 47 1009.5
20260507171103 62 142 2.0 10.0 0.00 0.23 0.17 43 1009.5
20260507170337 62 205 2.0 10.0 0.00 0.23 0.17 44 1009.6
20260507165838 61 153 3.0 10.0 0.00 0.23 0.17 43 1009.7
20260507165339 60 59 4.0 9.0 0.00 0.23 0.17 42 1009.7
20260507164837 60 61 4.0 9.0 0.00 0.23 0.17 45 1009.9
20260507164338 60 23 3.0 9.0 0.00 0.24 0.17 40 1010.0
20260507163839 61 69 3.0 9.0 0.00 0.24 0.17 41 1010.0
20260507163341 61 63 3.0 9.0 0.00 0.25 0.17 43 1010.1
20260507163055 61 84 2.0 9.0 0.00 0.25 0.17 43 1009.9
20260507162340 61 176 2.0 9.0 0.00 0.25 0.17 44 1010.0
20260507162330 61 203 3.0 9.0 0.00 0.26 0.17 47 1010.2
20260507161333 61 74 2.0 9.0 0.00 0.26 0.17 43 1010.3
20260507160831 61 49 1.0 6.0 0.00 0.27 0.17 45 1010.3
20260507160332 61 198 1.0 6.0 0.00 0.27 0.17 46 1010.3
20260507160103 60 156 2.0 6.0 0.00 0.28 0.17 48 1010.5
20260507155329 60 188 2.0 8.0 0.00 0.28 0.17 46 1010.5
20260507154829 60 75 2.0 8.0 0.00 0.28 0.17 45 1010.5
20260507154553 59 223 2.0 8.0 0.00 0.28 0.17 47 1010.6
20260507154048 59 65 3.0 8.0 0.00 0.28 0.17 45 1010.7
20260507153325 59 81 2.0 8.0 0.00 0.28 0.17 42 1010.7
20260507152825 60 193 2.0 11.0 0.00 0.28 0.17 47 1010.9
20260507152600 59 196 3.0 11.0 0.00 0.28 0.17 47 1010.9
20260507151825 59 34 3.0 11.0 0.00 0.28 0.17 47 1011.0
20260507151327 59 56 3.0 11.0 0.00 0.28 0.17 47 1011.1
20260507150824 59 211 2.0 6.0 0.00 0.28 0.17 44 1011.0
20260507150326 59 59 2.0 6.0 0.00 0.28 0.17 47 1011.0
20260507145819 59 161 2.0 7.0 0.00 0.28 0.17 46 1011.1
20260507145314 59 172 2.0 6.0 0.00 0.28 0.17 46 1011.3
20260507145251 58 72 3.0 7.0 0.00 0.28 0.17 48 1011.1
20260507144259 58 202 3.0 7.0 0.00 0.28 0.17 46 1011.2
20260507143753 59 54 2.0 7.0 0.00 0.28 0.17 47 1011.2
20260507143244 59 227 3.0 7.0 0.00 0.28 0.17 49 1011.1
20260507142736 59 115 2.0 7.0 0.00 0.28 0.17 46 1011.1
20260507142449 59 46 1.0 6.0 0.00 0.28 0.17 50 1011.1
20260507141946 58 190 1.0 6.0 0.00 0.28 0.17 51 1011.1
20260507141214 58 214 2.0 6.0 0.00 0.28 0.17 52 1011.1
20260507140721 58 55 2.0 9.0 0.00 0.28 0.17 50 1011.2
20260507140158 57 194 3.0 9.0 0.00 0.28 0.17 52 1011.2
20260507135919 57 49 2.0 6.0 0.00 0.28 0.17 53 1011.3
20260507135146 57 210 2.0 6.0 0.00 0.28 0.17 51 1011.2
20260507134854 57 159 3.0 6.0 0.00 0.28 0.17 52 1011.3
20260507134130 56 107 2.0 6.0 0.00 0.28 0.17 57 1011.3
20260507133625 56 208 2.0 8.0 0.00 0.28 0.17 53 1011.3
20260507133115 56 26 2.0 8.0 0.00 0.28 0.17 56 1011.3
20260507132608 56 62 2.0 9.0 0.00 0.28 0.17 55 1011.3
20260507132102 56 222 2.0 9.0 0.00 0.28 0.17 54 1011.3
20260507131819 56 61 2.0 5.0 0.00 0.28 0.17 57 1011.3
20260507131046 56 134 1.0 5.0 0.00 0.28 0.17 59 1011.3
20260507130540 55 66 2.0 5.0 0.00 0.28 0.17 61 1011.2
20260507130034 55 105 2.0 9.0 0.00 0.28 0.17 61 1011.3
20260507125527 54 104 2.0 9.0 0.00 0.28 0.17 60 1011.1
20260507125022 54 76 3.0 9.0 0.00 0.28 0.17 61 1011.2
20260507124737 54 85 2.0 9.0 0.00 0.28 0.17 61 1011.1
20260507124006 54 190 1.0 11.0 0.00 0.28 0.17 68 1011.1
20260507123718 53 142 1.0 11.0 0.00 0.28 0.17 71 1011.1
20260507122950 53 50 2.0 11.0 0.00 0.28 0.17 73 1011.1
20260507122444 52 32 2.0 11.0 0.00 0.28 0.17 75 1011.0
20260507122202 52 69 2.0 7.0 0.00 0.28 0.17 78 1011.0
20260507121441 51 63 1.0 7.0 0.00 0.28 0.17 77 1011.0
20260507120942 51 81 1.0 4.0 0.00 0.28 0.17 85 1011.2
20260507120443 50 167 1.0 4.0 0.00 0.28 0.17 86 1011.0
20260507115942 49 205 0.0 4.0 0.00 0.28 0.17 88 1011.0
20260507115442 48 134 0.0 4.0 0.00 0.28 0.17 88 1011.1
20260507114942 48 131 0.0 2.0 0.00 0.28 0.17 88 1011.1
20260507114439 48 131 0.0 2.0 0.00 0.28 0.17 89 1011.1
20260507113944 48 86 0.0 2.0 0.00 0.28 0.17 89 1011.0
20260507113446 48 86 0.0 1.0 0.00 0.28 0.17 89 1010.7
20260507113439 48 86 0.0 2.0 0.00 0.28 0.17 89 1010.8
20260507112439 48 86 0.0 1.0 0.00 0.28 0.17 89 1010.7
20260507111941 48 86 0.0 1.0 0.00 0.28 0.17 90 1010.6
20260507111440 48 86 0.0 1.0 0.00 0.28 0.17 90 1010.5
20260507110935 48 86 0.0 1.0 0.00 0.28 0.17 90 1010.5
20260507110435 48 86 0.0 0.0 0.00 0.28 0.17 90 1010.4
20260507110429 48 86 0.0 1.0 0.00 0.28 0.17 90 1010.6
20260507105443 48 86 0.0 0.0 0.00 0.28 0.17 90 1010.3
20260507104930 47 86 0.0 0.0 0.00 0.28 0.17 89 1010.3
20260507104649 47 86 0.0 2.0 0.00 0.28 0.17 89 1010.4
20260507103926 47 86 0.0 2.0 0.00 0.28 0.17 89 1010.2
20260507103647 47 86 0.0 2.0 0.00 0.28 0.17 89 1010.1
20260507102925 47 86 0.0 5.0 0.00 0.28 0.17 89 1010.1
20260507102423 47 86 0.0 5.0 0.00 0.28 0.17 89 1010.1
20260507101923 47 86 1.0 5.0 0.00 0.28 0.17 90 1010.0
20260507101421 47 196 0.0 5.0 0.00 0.28 0.17 90 1009.9
20260507100932 47 126 0.0 2.0 0.00 0.28 0.17 90 1009.9
20260507100417 47 126 0.0 2.0 0.00 0.28 0.17 90 1009.8
20260507095917 47 126 0.0 2.0 0.00 0.28 0.17 90 1009.8
20260507095414 47 126 1.0 2.0 0.00 0.28 0.17 90 1009.6
20260507094912 48 127 0.0 2.0 0.00 0.28 0.17 90 1009.6
20260507094410 48 127 0.0 1.0 0.00 0.28 0.17 90 1009.4
20260507094148 48 127 0.0 2.0 0.00 0.28 0.17 91 1009.6
20260507093407 48 127 0.0 2.0 0.00 0.28 0.17 91 1009.6
20260507092906 48 127 0.0 2.0 0.00 0.28 0.17 91 1009.7
20260507092405 48 127 0.0 2.0 0.00 0.28 0.17 91 1009.6
20260507091918 48 127 0.0 2.0 0.00 0.28 0.17 91 1009.4
20260507091628 48 127 0.0 2.0 0.00 0.28 0.17 91 1009.4
20260507091133 48 149 0.0 1.0 0.00 0.28 0.17 91 1009.6
20260507090621 48 147 0.0 3.0 0.00 0.28 0.17 91 1009.6
20260507085859 48 148 0.0 3.0 0.00 0.28 0.17 91 1009.7
20260507085358 48 152 0.0 2.0 0.00 0.28 0.17 91 1009.7
20260507084859 48 148 1.0 3.0 0.01 0.28 0.17 91 1009.6
20260507084615 48 151 1.0 3.0 0.01 0.28 0.17 91 1009.7
20260507083853 48 189 0.0 2.0 0.01 0.28 0.17 92 1009.6
20260507083620 48 192 0.0 1.0 0.01 0.28 0.17 92 1009.5
20260507082852 48 192 0.0 1.0 0.01 0.28 0.17 92 1009.8
20260507082354 48 192 0.0 3.0 0.01 0.28 0.17 92 1009.7
20260507081847 48 192 0.0 3.0 0.02 0.28 0.17 92 1009.4
20260507081341 48 192 0.0 3.0 0.02 0.28 0.17 92 1009.6
20260507080831 48 196 0.0 3.0 0.03 0.28 0.17 92 1009.5
20260507080331 48 194 0.0 1.0 0.03 0.28 0.17 92 1009.5
20260507075830 48 194 0.0 4.0 0.03 0.28 0.17 92 1009.7
20260507075329 48 194 0.0 4.0 0.03 0.28 0.17 91 1009.8
20260507074831 48 53 0.0 4.0 0.03 0.27 0.16 91 1009.7
20260507074327 48 53 0.0 4.0 0.04 0.27 0.16 91 1009.7
20260507073825 48 196 0.0 3.0 0.05 0.27 0.16 91 1010.2
20260507073323 49 196 0.0 3.0 0.07 0.27 0.16 91 1009.8
20260507072836 49 196 0.0 3.0 0.08 0.27 0.16 91 1009.9
20260507072321 49 196 1.0 3.0 0.09 0.27 0.16 91 1010.0
20260507071823 49 142 0.0 3.0 0.09 0.26 0.15 91 1009.8
20260507071323 49 186 0.0 4.0 0.09 0.26 0.15 91 1009.9
20260507070817 49 186 0.0 4.0 0.09 0.25 0.14 90 1009.8
20260507070317 49 186 0.0 4.0 0.10 0.25 0.14 90 1009.9
20260507065819 49 186 1.0 4.0 0.10 0.25 0.14 90 1010.0
20260507065316 49 180 0.0 3.0 0.11 0.25 0.14 90 1010.0
20260507064819 50 180 0.0 3.0 0.10 0.24 0.13 90 1009.7
20260507064317 50 180 0.0 3.0 0.09 0.23 0.12 90 1010.1
20260507063818 50 87 0.0 2.0 0.08 0.22 0.12 90 1009.7
20260507063319 50 86 0.0 3.0 0.06 0.20 0.09 90 1009.7
20260507062817 50 86 0.0 3.0 0.05 0.19 0.08 90 1009.9
20260507062317 50 84 0.0 3.0 0.04 0.18 0.07 89 1009.9
20260507061817 50 59 1.0 3.0 0.05 0.17 0.06 89 1009.7
20260507061318 51 205 0.0 3.0 0.05 0.17 0.06 89 1009.6
20260507060817 51 106 0.0 2.0 0.04 0.16 0.05 89 1009.6
20260507060544 51 213 0.0 2.0 0.03 0.15 0.04 88 1010.0
20260507055816 51 217 0.0 0.0 0.04 0.15 0.04 88 1009.5
20260507055317 51 217 0.0 0.0 0.03 0.14 0.03 88 1009.6
20260507054818 51 217 0.0 0.0 0.03 0.14 0.03 88 1009.6
20260507054317 51 217 0.0 6.0 0.03 0.14 0.03 87 1009.4
20260507053816 52 217 0.0 6.0 0.03 0.14 0.03 86 1009.5
20260507053315 52 217 1.0 6.0 0.03 0.14 0.03 85 1009.3
20260507052814 52 217 1.0 6.0 0.03 0.14 0.03 85 1009.1
20260507052308 52 148 0.0 2.0 0.02 0.13 0.03 84 1008.8
20260507051808 53 190 0.0 2.0 0.01 0.12 0.01 85 1009.0
20260507051319 53 190 0.0 1.0 0.01 0.12 0.01 85 1009.2
20260507050804 53 190 0.0 4.0 0.01 0.12 0.01 83 1009.2
20260507050304 53 190 0.0 4.0 0.01 0.12 0.01 83 1009.2
20260507045804 53 190 0.0 4.0 0.00 0.11 0.00 82 1009.2
20260507045301 53 190 0.0 4.0 0.00 0.11 0.00 82 1009.4
20260507044759 53 106 0.0 3.0 0.00 0.11 0.00 82 1009.5
20260507044300 53 106 0.0 3.0 0.00 0.11 0.00 82 1009.3
20260507043754 53 106 0.0 4.0 0.00 0.11 0.00 82 1009.4
20260507043258 53 196 0.0 4.0 0.00 0.11 0.00 82 1009.3
20260507042739 53 215 0.0 4.0 0.00 0.11 0.00 82 1009.4
20260507042233 53 221 0.0 4.0 0.00 0.11 0.00 81 1009.4
20260507041723 54 73 0.0 3.0 0.00 0.11 0.00 81 1009.3
20260507041223 54 70 0.0 3.0 0.00 0.11 0.00 82 1009.4
20260507040713 54 155 0.0 5.0 0.00 0.11 0.00 82 1009.5
20260507040201 54 155 1.0 5.0 0.00 0.11 0.00 81 1009.4
20260507035654 54 55 1.0 5.0 0.00 0.11 0.11 82 1009.5
20260507035149 54 140 1.0 5.0 0.00 0.11 0.11 82 1009.3
20260507034638 54 130 0.0 2.0 0.00 0.11 0.11 83 1009.4
20260507034133 54 129 0.0 2.0 0.00 0.11 0.11 83 1009.4
20260507033627 54 126 0.0 2.0 0.00 0.11 0.11 83 1009.2
20260507033116 54 124 0.0 2.0 0.00 0.11 0.11 83 1009.1
20260507032611 54 94 0.0 1.0 0.00 0.11 0.11 84 1009.1
20260507032105 54 94 0.0 5.0 0.00 0.11 0.11 84 1009.0
20260507031818 54 94 1.0 5.0 0.00 0.11 0.11 83 1009.1
20260507031308 54 94 1.0 5.0 0.00 0.11 0.11 83 1009.1
20260507030543 54 224 1.0 5.0 0.00 0.11 0.11 83 1009.2
20260507030033 55 117 0.0 4.0 0.00 0.11 0.11 83 1009.0
20260507025527 55 61 1.0 5.0 0.00 0.11 0.11 83 1009.0
20260507025021 55 61 1.0 5.0 0.00 0.11 0.11 83 1009.0
20260507024512 55 193 1.0 5.0 0.00 0.11 0.11 83 1009.2
20260507024005 55 192 1.0 5.0 0.00 0.11 0.11 83 1009.1
20260507023458 55 132 1.0 3.0 0.00 0.11 0.11 84 1009.1
20260507022949 56 65 1.0 7.0 0.00 0.11 0.11 84 1009.3
20260507022443 56 184 1.0 7.0 0.00 0.11 0.11 85 1009.4
20260507021936 56 102 1.0 7.0 0.00 0.11 0.11 86 1009.4
20260507021916 57 215 0.0 7.0 0.00 0.11 0.11 88 1009.4
20260507020921 57 140 0.0 4.0 0.00 0.11 0.11 88 1009.3
20260507020414 57 149 1.0 5.0 0.01 0.11 0.11 88 1009.3
20260507020131 58 55 1.0 5.0 0.03 0.11 0.11 89 1009.4
20260507015400 58 46 0.0 3.0 0.03 0.11 0.11 89 1009.2
20260507014853 58 167 0.0 3.0 0.03 0.11 0.11 89 1009.2
20260507014343 58 167 1.0 4.0 0.03 0.11 0.11 90 1009.0
20260507013841 59 170 1.0 3.0 0.03 0.11 0.11 90 1008.9
20260507013331 59 170 0.0 3.0 0.03 0.11 0.11 90 1008.9
20260507012821 59 205 0.0 3.0 0.03 0.11 0.11 90 1008.8
20260507012315 59 205 0.0 3.0 0.03 0.11 0.11 90 1008.8
20260507012249 60 206 1.0 4.0 0.03 0.11 0.11 89 1008.7
20260507011259 60 69 1.0 4.0 0.03 0.11 0.11 89 1008.5
20260507010752 60 39 1.0 4.0 0.03 0.11 0.11 89 1008.3
20260507010247 61 209 1.0 4.0 0.02 0.10 0.10 90 1008.1
20260507005737 62 138 0.0 3.0 0.00 0.08 0.08 92 1008.1
20260507005231 62 232 0.0 0.0 0.00 0.08 0.08 93 1007.7
20260507004950 62 232 0.0 0.0 0.00 0.08 0.08 92 1007.6
20260507004216 62 232 0.0 0.0 0.00 0.08 0.08 92 1007.5
20260507003930 62 232 0.0 0.0 0.00 0.08 0.08 92 1007.4
20260507003422 62 232 0.0 2.0 0.00 0.08 0.08 92 1007.5
20260507002653 62 232 0.0 2.0 0.00 0.08 0.08 92 1007.4
20260507002147 62 232 0.0 2.0 0.00 0.08 0.08 92 1007.2
20260507001906 62 233 0.0 2.0 0.00 0.08 0.08 92 1007.3
20260507001131 62 226 0.0 1.0 0.00 0.08 0.08 92 1007.4
20260507000625 62 226 0.0 1.0 0.00 0.08 0.08 92 1007.4
20260507000119 62 226 0.0 3.0 0.00 0.08 0.08 92 1007.3
20260506235609 62 226 0.0 3.0 0.00 0.08 0.08 92 1007.4
20260506235322 62 227 0.0 3.0 0.00 0.08 0.08 92 1007.2
20260506234557 62 235 0.0 3.0 0.00 0.08 0.08 92 1007.4
20260506234047 62 242 0.0 2.0 0.00 0.08 0.08 91 1007.3
20260506233541 62 243 0.0 2.0 0.00 0.08 0.08 91 1007.2
20260506233256 62 245 0.0 2.0 0.00 0.08 0.08 91 1007.1
20260506232525 63 245 0.0 3.0 0.00 0.08 0.08 91 1007.1
20260506232019 63 247 0.0 3.0 0.00 0.08 0.08 91 1007.2
20260506231512 63 250 0.0 3.0 0.00 0.08 0.08 91 1007.2
20260506231003 63 252 1.0 3.0 0.00 0.08 0.08 91 1007.2
20260506230458 63 196 0.0 4.0 0.00 0.08 0.08 91 1007.3
20260506225950 63 198 0.0 4.0 0.00 0.08 0.08 91 1007.3
20260506225441 63 196 1.0 4.0 0.00 0.08 0.08 91 1007.3
20260506224935 63 227 0.0 4.0 0.00 0.08 0.08 91 1007.2
20260506224429 63 72 0.0 3.0 0.00 0.08 0.08 91 1007.2
20260506223919 63 59 1.0 3.0 0.00 0.08 0.08 91 1007.1
20260506223412 63 220 1.0 6.0 0.00 0.08 0.08 91 1007.1
20260506222907 63 196 1.0 6.0 0.00 0.08 0.08 91 1007.0
20260506222357 63 38 1.0 6.0 0.00 0.08 0.08 90 1007.1
20260506221850 63 223 1.0 6.0 0.00 0.08 0.08 90 1007.0
20260506221346 63 208 2.0 6.0 0.00 0.08 0.08 90 1006.9
20260506220835 63 162 2.0 5.0 0.00 0.08 0.08 90 1006.9
20260506220328 63 59 2.0 7.0 0.00 0.08 0.08 90 1006.8
20260506215823 63 217 1.0 7.0 0.00 0.08 0.08 90 1006.6
20260506215312 63 221 1.0 5.0 0.00 0.08 0.08 91 1006.7
20260506214812 63 186 1.0 5.0 0.00 0.08 0.08 91 1006.7
20260506214308 63 217 1.0 5.0 0.00 0.08 0.08 91 1006.6
20260506213807 63 220 1.0 6.0 0.00 0.08 0.08 91 1006.6
20260506213307 63 65 1.0 6.0 0.00 0.08 0.08 91 1006.7
20260506212807 62 198 1.0 7.0 0.00 0.08 0.08 92 1006.6
20260506212530 62 221 1.0 7.0 0.00 0.08 0.08 92 1006.7
20260506211804 62 212 1.0 4.0 0.00 0.08 0.08 92 1006.6
20260506211305 62 210 1.0 4.0 0.00 0.08 0.08 92 1006.6
20260506211030 62 82 1.0 4.0 0.00 0.08 0.08 92 1006.5